Gilze-Rijen, Netherlands

1:10 AM CEST on May 01, 2017 (GMT +0200)
Gilze-Rijen Air Base

Weather History for EHGR - November, 2012

Change the Weather History Date:

Tuesday, November 20, 2012

  Actual Average Record
Temperature  
Mean Temperature 48 °F -  
Max Temperature 53 °F 43 °F 55 °F (2016)
Min Temperature 42 °F 34 °F 19 °F (1998)
Degree Days  
Heating Degree Days 16    
Moisture  
Dew Point 47 °F    
Average Humidity 94    
Maximum Humidity 100    
Minimum Humidity 82    
Precipitation  
Precipitation 0.00 in - - ()
Sea Level Pressure  
Sea Level Pressure 29.99 in    
Wind  
Wind Speed 9 mph ()    
Max Wind Speed 14 mph    
Max Gust Speed -    
Visibility 5.0 miles    
Events      
Averages and records for this station are not official NWS values.
T = Trace of Precipitation, MM = Missing Value Source: Averaged Metar Reports

Daily Weather History Graph

Daily Weather History Graph

Search for Another Location

Airport or City:

Trip Planner

Search our weather history database for the weather conditions in past years. The results will help you decide how hot, cold, wet, or windy it might be!

Date:

Astronomy

Nov. 20, 2012 Rise Set
Actual Time 8:07 AM CET 4:43 PM CET
Civil Twilight 7:29 AM CET 5:21 PM CET
Nautical Twilight 6:48 AM CET 6:03 PM CET
Astronomical Twilight 6:08 AM CET 6:42 PM CET
Moon 1:11 PM CET (11/20) No Moon Set
Length of Visible Light 9h 52m
Length of Day
8h 36m
Waxing Crescent, 48% of the Moon is Illuminated
Nov 20
Waxing Crescent
Nov 20
First Quarter
Nov 28
Full
Dec 6
Last Quarter
Dec 13
New

Hourly Weather History & Observations

Time (CET) Temp. Windchill Dew Point Humidity Pressure Visibility Wind Dir Wind Speed Gust Speed Precip Events Conditions
12:25 AM 50.0 °F - 50.0 °F 100% 29.98 in 3.7 mi South 9.2 mph - N/A   Mostly Cloudy
12:55 AM 50.0 °F - 50.0 °F 100% 29.98 in 3.7 mi South 9.2 mph - N/A   Overcast
1:25 AM 50.0 °F - 50.0 °F 100% 29.98 in 3.1 mi South 10.4 mph - N/A   Overcast
1:43 AM 48.2 °F - 48.2 °F 100% 29.98 in - South 8.1 mph - N/A   Scattered Clouds
1:47 AM 48.2 °F - 48.2 °F 100% 29.98 in 3.1 mi South 8.1 mph - N/A   Scattered Clouds
1:48 AM 48.2 °F - 48.2 °F 100% 29.98 in - South 8.1 mph - N/A   Mostly Cloudy
1:55 AM 48.2 °F - 48.2 °F 100% 29.98 in - South 8.1 mph - N/A   Mostly Cloudy
2:25 AM 48.2 °F - 48.2 °F 100% 29.98 in - South 8.1 mph - N/A   Overcast
2:45 AM 46.4 °F 41.9 °F 46.4 °F 100% 29.98 in - South 9.2 mph - N/A   Mostly Cloudy
2:47 AM 48.2 °F - 48.2 °F 100% 29.98 in - South 9.2 mph - N/A   Overcast
2:55 AM 46.4 °F 41.9 °F 46.4 °F 100% 29.98 in 2.2 mi South 9.2 mph - N/A   Mostly Cloudy
2:59 AM 48.2 °F - 48.2 °F 100% 29.98 in - South 9.2 mph - N/A   Mostly Cloudy
3:05 AM 46.4 °F 41.9 °F 46.4 °F 100% 29.98 in 2.2 mi South 9.2 mph - N/A   Mostly Cloudy
3:09 AM 48.2 °F - 48.2 °F 100% 29.98 in - South 9.2 mph - N/A   Mostly Cloudy
3:16 AM 48.2 °F - 48.2 °F 100% 29.98 in - South 9.2 mph - N/A   Overcast
3:19 AM 48.2 °F - 48.2 °F 100% 29.98 in - South 10.4 mph - N/A   Overcast
3:25 AM 48.2 °F - 48.2 °F 100% 29.98 in - South 10.4 mph - N/A   Mostly Cloudy
3:30 AM 48.2 °F - 46.4 °F 93% 29.98 in - South 9.2 mph - N/A   Scattered Clouds
3:36 AM 48.2 °F - 48.2 °F 100% 29.98 in - South 9.2 mph - N/A   Mostly Cloudy
3:40 AM 48.2 °F - 48.2 °F 100% 29.98 in - South 9.2 mph - N/A   Overcast
3:44 AM 48.2 °F - 48.2 °F 100% 29.98 in - South 9.2 mph - N/A   Overcast
3:55 AM 46.4 °F 41.9 °F 46.4 °F 100% 29.98 in - South 9.2 mph - N/A   Overcast
4:01 AM 46.4 °F 42.4 °F 46.4 °F 100% 29.98 in - South 8.1 mph - N/A   Mostly Cloudy
4:07 AM 46.4 °F 42.9 °F 46.4 °F 100% 29.98 in - South 6.9 mph - N/A   Mostly Cloudy
4:11 AM 46.4 °F 42.9 °F 46.4 °F 100% 29.98 in - SSE 6.9 mph - N/A   Mostly Cloudy
4:14 AM 46.4 °F 42.9 °F 46.4 °F 100% 29.98 in - SSE 6.9 mph - N/A   Mostly Cloudy
4:19 AM 46.4 °F 42.9 °F 46.4 °F 100% 29.98 in 2.2 mi SSE 6.9 mph - N/A   Mostly Cloudy
4:25 AM 46.4 °F 42.9 °F 46.4 °F 100% 29.98 in 2.2 mi SSE 6.9 mph - N/A   Overcast
4:29 AM 46.4 °F 42.9 °F 46.4 °F 100% 29.98 in - SSE 6.9 mph - N/A   Mostly Cloudy
4:30 AM 46.4 °F 42.9 °F 46.4 °F 100% 29.98 in - SSE 6.9 mph - N/A   Mostly Cloudy
4:37 AM 46.4 °F 42.4 °F 46.4 °F 100% 29.98 in - SSE 8.1 mph - N/A   Overcast
4:41 AM 46.4 °F 42.9 °F 46.4 °F 100% 29.98 in 2.2 mi SSE 6.9 mph - N/A   Overcast
4:55 AM 46.4 °F 42.4 °F 46.4 °F 100% 29.98 in 2.2 mi South 8.1 mph - N/A   Overcast
5:19 AM 46.4 °F 42.4 °F 46.4 °F 100% 29.98 in - South 8.1 mph - N/A   Mostly Cloudy
5:25 AM 48.2 °F - 48.2 °F 100% 29.98 in 2.2 mi South 8.1 mph - N/A   Overcast
5:30 AM 48.2 °F - 48.2 °F 100% 29.98 in - South 6.9 mph - N/A   Overcast
5:32 AM 48.2 °F - 46.4 °F 93% 29.98 in - South 6.9 mph - N/A   Mostly Cloudy
5:39 AM 46.4 °F 42.4 °F 46.4 °F 100% 29.98 in - South 8.1 mph - N/A   Scattered Clouds
5:45 AM 46.4 °F 42.4 °F 46.4 °F 100% 29.98 in - South 8.1 mph - N/A   Mostly Cloudy
5:49 AM 48.2 °F - 48.2 °F 100% 29.98 in - South 6.9 mph - N/A   Overcast
5:55 AM 48.2 °F - 48.2 °F 100% 29.98 in - South 6.9 mph - N/A   Overcast
6:09 AM 48.2 °F - 48.2 °F 100% 29.98 in - SSE 8.1 mph - N/A   Mostly Cloudy
6:25 AM 48.2 °F - 48.2 °F 100% 29.98 in - South 9.2 mph - N/A   Mostly Cloudy
6:55 AM 46.4 °F 41.9 °F 46.4 °F 100% 29.98 in - South 9.2 mph - N/A   Overcast
7:01 AM 46.4 °F 42.4 °F 46.4 °F 100% 29.98 in - South 8.1 mph - N/A   Overcast
7:05 AM 46.4 °F 42.4 °F 46.4 °F 100% 29.98 in - South 8.1 mph - N/A   Overcast
7:12 AM 46.4 °F 41.9 °F 46.4 °F 100% 29.98 in - South 9.2 mph - N/A   Overcast
7:25 AM 46.4 °F 41.9 °F 46.4 °F 100% 29.98 in 2.2 mi South 9.2 mph - N/A   Scattered Clouds
7:39 AM 46.4 °F 41.9 °F 44.6 °F 93% 29.98 in - SSE 9.2 mph - N/A   Mist
7:44 AM 46.4 °F 41.9 °F 44.6 °F 93% 29.98 in - SSE 9.2 mph - N/A   Mist
7:45 AM 44.6 °F 39.7 °F 44.6 °F 100% 29.98 in - SSE 9.2 mph - N/A   Mist
7:55 AM 44.6 °F 39.7 °F 44.6 °F 100% 29.98 in 2.5 mi SSE 9.2 mph - N/A   Partly Cloudy
8:01 AM 44.6 °F 39.7 °F 44.6 °F 100% 29.98 in 3.1 mi South 9.2 mph - N/A   Partly Cloudy
8:05 AM 46.4 °F 41.9 °F 44.6 °F 93% 29.98 in - South 9.2 mph - N/A   Partly Cloudy
8:18 AM 44.6 °F 39.2 °F 44.6 °F 100% 29.98 in - SSE 10.4 mph - N/A   Overcast
8:25 AM 44.6 °F 39.7 °F 44.6 °F 100% 30.01 in - SSE 9.2 mph - N/A   Overcast
8:30 AM 46.4 °F 41.9 °F 44.6 °F 93% 30.01 in 3.1 mi SSE 9.2 mph - N/A   Overcast
8:31 AM 46.4 °F 41.9 °F 44.6 °F 93% 30.01 in 3.1 mi SSE 9.2 mph - N/A   Overcast
8:37 AM 46.4 °F 41.9 °F 44.6 °F 93% 30.01 in - South 9.2 mph - N/A   Overcast
8:41 AM 46.4 °F 41.9 °F 44.6 °F 93% 30.01 in 3.1 mi South 9.2 mph - N/A   Overcast
8:55 AM 46.4 °F 41.9 °F 44.6 °F 93% 30.01 in 3.1 mi South 9.2 mph - N/A   Overcast
9:25 AM 46.4 °F 41.5 °F 44.6 °F 93% 30.01 in 3.1 mi South 10.4 mph - N/A   Overcast
9:55 AM 46.4 °F 41.5 °F 46.4 °F 100% 30.01 in 3.7 mi South 10.4 mph - N/A   Overcast
10:16 AM 48.2 °F - 46.4 °F 93% 30.01 in 5.0 mi South 12.7 mph - N/A   Mostly Cloudy
10:20 AM 48.2 °F - 46.4 °F 93% 30.01 in 4.3 mi South 11.5 mph - N/A   Mostly Cloudy
10:25 AM 48.2 °F - 46.4 °F 93% 30.01 in 4.3 mi South 11.5 mph - N/A   Overcast
10:35 AM 48.2 °F - 46.4 °F 93% 30.01 in 5.0 mi South 11.5 mph - N/A   Overcast
10:39 AM 48.2 °F - 46.4 °F 93% 30.01 in 4.3 mi South 11.5 mph - N/A   Overcast
10:43 AM 48.2 °F - 46.4 °F 93% 30.01 in 5.0 mi South 11.5 mph - N/A   Overcast
10:55 AM 48.2 °F - 46.4 °F 93% 30.01 in 5.0 mi South 11.5 mph - N/A   Scattered Clouds
10:59 AM 48.2 °F - 46.4 °F 93% 30.01 in 4.3 mi South 11.5 mph - N/A   Mostly Cloudy
11:03 AM 48.2 °F - 46.4 °F 93% 30.01 in 5.0 mi South 11.5 mph - N/A   Overcast
11:16 AM 48.2 °F - 46.4 °F 93% 30.01 in 5.0 mi South 12.7 mph - N/A   Partly Cloudy
11:25 AM 48.2 °F - 46.4 °F 93% 30.01 in 5.6 mi South 10.4 mph - N/A   Scattered Clouds
11:30 AM 50.0 °F - 48.2 °F 94% 30.01 in 5.6 mi South 9.2 mph - N/A   Mist
11:55 AM 51.8 °F - 48.2 °F 88% 30.01 in 6.2 mi South 10.4 mph - N/A   Unknown
12:01 PM 51.8 °F - 48.2 °F 88% 30.01 in 6.2 mi South 10.4 mph - N/A   Partly Cloudy
12:25 PM 51.8 °F - 48.2 °F 88% 30.01 in 6.2 mi South 12.7 mph - N/A   Partly Cloudy
12:55 PM 53.6 °F - 48.2 °F 82% 29.98 in 6.2 mi South 13.8 mph - N/A   Scattered Clouds
1:00 PM 53.6 °F - 48.2 °F 82% 29.98 in 6.2 mi South 13.8 mph - N/A   Mostly Cloudy
1:13 PM 53.6 °F - 48.2 °F 82% 29.98 in 6.2 mi South 13.8 mph - N/A   Mostly Cloudy
1:14 PM 53.6 °F - 48.2 °F 82% 29.98 in 6.2 mi South 12.7 mph - N/A   Mostly Cloudy
1:25 PM 53.6 °F - 48.2 °F 82% 29.98 in 6.2 mi South 13.8 mph - N/A   Mostly Cloudy
1:29 PM 53.6 °F - 48.2 °F 82% 29.98 in 6.2 mi South 12.7 mph - N/A   Mostly Cloudy
1:32 PM 53.6 °F - 48.2 °F 82% 29.98 in 6.2 mi South 12.7 mph - N/A   Mostly Cloudy
1:40 PM 53.6 °F - 48.2 °F 82% 29.98 in 6.2 mi South 13.8 mph - N/A   Scattered Clouds
1:55 PM 53.6 °F - 48.2 °F 82% 29.98 in 6.2 mi South 11.5 mph - N/A   Partly Cloudy
2:01 PM 53.6 °F - 48.2 °F 82% 29.98 in 6.2 mi South 12.7 mph - N/A   Partly Cloudy
2:25 PM 51.8 °F - 48.2 °F 88% 29.98 in 6.2 mi South 11.5 mph - N/A   Mostly Cloudy
2:55 PM 51.8 °F - 48.2 °F 88% 29.98 in 6.2 mi South 10.4 mph - N/A   Overcast
3:25 PM 51.8 °F - 48.2 °F 88% 29.98 in 6.2 mi South 9.2 mph - N/A   Mostly Cloudy
3:55 PM 51.8 °F - 48.2 °F 88% 29.98 in 6.2 mi South 10.4 mph - N/A   Unknown
4:25 PM 51.8 °F - 48.2 °F 88% 29.98 in 6.2 mi South 9.2 mph - N/A   Overcast
4:37 PM 51.8 °F - 46.4 °F 82% 29.98 in 6.2 mi SSE 10.4 mph - N/A   Overcast
4:55 PM 50.0 °F - 46.4 °F 87% 29.98 in 6.2 mi South 10.4 mph - N/A   Overcast
5:25 PM 50.0 °F - 46.4 °F 87% 29.98 in 6.2 mi South 11.5 mph - N/A   Mostly Cloudy
5:46 PM 50.0 °F - 46.4 °F 87% 29.98 in 6.2 mi South 10.4 mph - N/A   Scattered Clouds
5:55 PM 50.0 °F - 46.4 °F 87% 29.98 in 6.2 mi South 10.4 mph - N/A   Partly Cloudy
6:25 PM 50.0 °F - 46.4 °F 87% 29.98 in 6.2 mi South 11.5 mph - N/A   Overcast
6:55 PM 50.0 °F - 46.4 °F 87% 29.98 in 6.2 mi SSE 10.4 mph - N/A   Overcast
7:25 PM 48.2 °F - 46.4 °F 93% 29.98 in 6.2 mi South 10.4 mph - N/A   Overcast
7:55 PM 48.2 °F - 46.4 °F 93% 29.98 in 6.2 mi South 10.4 mph - N/A   Overcast
8:25 PM 48.2 °F - 44.6 °F 87% 29.98 in 6.2 mi South 10.4 mph - N/A   Overcast
8:55 PM 48.2 °F - 44.6 °F 87% 29.98 in 6.2 mi South 9.2 mph - N/A   Overcast
9:25 PM 46.4 °F 41.9 °F 44.6 °F 93% 29.98 in 6.2 mi South 9.2 mph - N/A   Overcast
9:55 PM 46.4 °F 42.4 °F 42.8 °F 87% 29.98 in 6.2 mi South 8.1 mph - N/A   Overcast
10:25 PM 46.4 °F 42.4 °F 42.8 °F 87% 29.98 in 6.2 mi South 8.1 mph - N/A   Overcast
10:35 PM 46.4 °F 41.5 °F 42.8 °F 87% 29.98 in 6.2 mi South 10.4 mph - N/A   Overcast
10:55 PM 44.6 °F 39.7 °F 42.8 °F 93% 29.98 in 6.2 mi South 9.2 mph - N/A   Overcast
11:25 PM 44.6 °F 39.7 °F 42.8 °F 93% 29.98 in 6.2 mi South 9.2 mph - N/A   Overcast
11:55 PM 42.8 °F 38.6 °F 41.0 °F 93% 29.98 in 6.2 mi SSE 6.9 mph - N/A   Overcast